Todos
Beauregard Rgnl Airport (De Ridder, LA) DRI Condições meteorológicas
|
De Ridder, LA (KDRI)
Céu Limpo
Vento Ligeiro |
|
24 °C |
There is no TAF data available at DRI or any nearby airports.
Histórico recente de METAR DRI
| Date | Time (CDT) | Flight Rules | Wind Dir. | Speed | Type | Height AGL (ft) | Visibility | Temp (°C) | Temp (°F) | Dew Point (°C) | Dew Point (°F) | Rel. Humid. | Pressure | Density Altitude | Remarks |
|---|---|---|---|---|---|---|---|---|---|---|---|---|---|---|---|
| 04-Mai | 18:35 | VFR | 170° | 8 kt | 10 miles | 24° | 75° | 15° | 59° | 55% | 29.88 in Hg | 1.321 ft | |||
| 04-Mai | 18:15 | VFR | 190° | 11 kt | 10 miles | 25° | 77° | 14° | 57° | 51% | 29.89 in Hg | 1.431 ft | |||
| 04-Mai | 17:55 | VFR | 170° | 8 kt | 10 miles | 25° | 77° | 14° | 57° | 49% | 29.89 in Hg | 1.431 ft | |||
| 04-Mai | 17:35 | VFR | 180° | 11 kt | 10 miles | 26° | 78° | 13° | 55° | 47% | 29.90 in Hg | 1.541 ft | |||
| 04-Mai | 17:15 | VFR | 160° | 11 kt | 10 miles | 26° | 78° | 13° | 55° | 45% | 29.90 in Hg | 1.541 ft | |||
| 04-Mai | 16:55 | VFR | 170° | 8 kt | 10 miles | 26° | 78° | 13° | 55° | 43% | 29.90 in Hg | 1.541 ft | |||
| 04-Mai | 16:15 | VFR | 170° | 10 kt | 10 miles | 26° | 78° | 12° | 53° | 43% | 29.92 in Hg | 1.521 ft | |||
| 04-Mai | 15:55 | VFR | 180° | 12 kt | 10 miles | 26° | 78° | 12° | 53° | 40% | 29.93 in Hg | 1.511 ft | |||
| 04-Mai | 15:35 | VFR | 190° | 10 kt | 10 miles | 27° | 80° | 12° | 53° | 39% | 29.94 in Hg | 1.621 ft | |||
| 04-Mai | 15:15 | VFR | 180° | 12 kt | 10 miles | 26° | 78° | 12° | 53° | 40% | 29.94 in Hg | 1.501 ft | |||
| 04-Mai | 14:55 | VFR | 200° | 11 kt | 10 miles | 26° | 78° | 12° | 53° | 41% | 29.95 in Hg | 1.491 ft | |||
| 04-Mai | 14:35 | VFR | 170° | 10 kt | 10 miles | 26° | 78° | 11° | 51° | 38% | 29.97 in Hg | 1.471 ft | Wind gusting to 19 KT | ||
| 04-Mai | 14:15 | VFR | 200° | 12 kt | 10 miles | 26° | 78° | 12° | 53° | 40% | 29.97 in Hg | 1.471 ft | Wind gusting to 17 KT | ||
| 04-Mai | 13:55 | VFR | 200° | 13 kt | 10 miles | 26° | 78° | 11° | 51° | 40% | 29.98 in Hg | 1.461 ft | |||
| 04-Mai | 13:35 | VFR | 190° | 11 kt | 10 miles | 26° | 78° | 11° | 51° | 40% | 29.99 in Hg | 1.451 ft | Wind gusting to 17 KT | ||
| 04-Mai | 13:15 | VFR | 200° | 14 kt | 10 miles | 26° | 78° | 12° | 53° | 41% | 29.99 in Hg | 1.451 ft | Wind gusting to 18 KT | ||
| 04-Mai | 12:55 | VFR | 210° | 12 kt | 10 miles | 26° | 78° | 11° | 51° | 41% | 29.99 in Hg | 1.451 ft | |||
| 04-Mai | 12:35 | VFR | 200° | 12 kt | 10 miles | 25° | 77° | 11° | 51° | 42% | 30.00 in Hg | 1.321 ft | |||
| 04-Mai | 12:15 | VFR | 180° | 8 kt | 10 miles | 24° | 75° | 11° | 51° | 42% | 30.01 in Hg | 1.191 ft | |||
| 04-Mai | 11:55 | VFR | 200° | 11 kt | 10 miles | 24° | 75° | 10° | 50° | 41% | 30.02 in Hg | 1.181 ft | Wind gusting to 19 KT | ||
| 04-Mai | 11:35 | VFR | 170° | 13 kt | 10 miles | 24° | 75° | 10° | 50° | 40% | 30.03 in Hg | 1.171 ft | |||
| 04-Mai | 11:15 | VFR | 200° | 12 kt | 10 miles | 24° | 75° | 10° | 50° | 41% | 30.03 in Hg | 1.171 ft | |||
| 04-Mai | 10:55 | VFR | 180° | 12 kt | 10 miles | 23° | 73° | 8° | 46° | 39% | 30.04 in Hg | 1.041 ft | |||
| 04-Mai | 10:35 | VFR | 150° | 11 kt | 10 miles | 23° | 73° | 8° | 46° | 36% | 30.04 in Hg | 1.041 ft |
Entrar
| Seu navegador não suporta. atualize seu navegador |
